Simultaneous Nadir Overpasses (SNOs) Predictions

Prediction of SNOs between METOP-B and TERRA Satellite Orbit:

Table of predicted SNOs for the next 14.0 days since TLE Epoch: 12/2/2017
Index Date (METOP-B) Time (METOP-B) Lat,Lon (METOP-B) SZA (METOP-B ) Date (TERRA) Time (TERRA) Lat,Lon (TERRA) SZA (TERRA ) Distance(km) Time Diff (sec)
1 12/04/2017 00:10:34 -81.31, 44.79 73.54 12/04/2017 00:11:33 -81.31, 44.79 73.51 0.49 59
2 12/04/2017 01:01:14 81.31,-147.48 106.51 12/04/2017 01:00:59 81.32,-147.51 106.50 0.52 15
3 12/06/2017 19:44:56 -81.31, 111.23 73.23 12/06/2017 19:45:46 -81.31, 111.23 73.20 0.39 50
4 12/06/2017 20:35:36 81.31, -81.09 106.82 12/06/2017 20:35:12 81.32, -81.08 106.81 0.18 24
5 12/09/2017 15:19:19 -81.31, 177.64 72.97 12/09/2017 15:20:00 -81.31, 177.60 72.96 0.69 41
6 12/09/2017 16:09:59 81.31, -14.72 107.07 12/09/2017 16:09:26 81.31, -14.72 107.06 0.28 33
7 12/12/2017 10:53:42 -81.31,-115.97 72.78 12/12/2017 10:54:14 -81.30,-116.08 72.78 2.10 32
8 12/12/2017 11:44:21 81.32, 52.02 107.31 12/12/2017 11:43:39 81.32, 51.96 107.29 1.16 42
9 12/15/2017 06:28:05 -81.31, -49.61 72.65 12/15/2017 06:28:27 -81.31, -49.45 72.62 2.59 22




NCC Satellite Simultaneous Nadir Overpasses (SNOs) Prediction Service
